Location: Maddington
(51.2000°N, 1.9167°W)
Time: 23:07:07
(UTC+00:00)

Cosmos 1513 Rocket - Pass Details

Date: 18 September 2020
Orbit: 939 x 1009 km, 82.9° (Epoch: 30 October)

Event Time Altitude Azimuth Distance (km) Brightness Sun altitude
Rises 19:34:43 0° 182° (S) 3,691 7.3 -13.2°
Reaches altitude 10° 19:37:15 10° 181° (S) 2,737 6.7 -13.6°
Maximum altitude 19:43:30 77° 97° (E) 1,003 4.4 -14.5°
Drops below altitude 10° 19:49:42 10° 12° (NNE) 2,707 7.0 -15.4°
Sets 19:52:11 0° 11° (NNE) 3,648 7.7 -15.7°
